Time,TemperatureF,DewpointF,PressureIn,WindDirection,WindDirectionDegrees,WindSpeedMPH,WindSpeedGustMPH,Humidity,HourlyPrecipIn,Conditions,Clouds,dailyrainin,SoftwareType,DateUTC
2013-06-12 00:01:00,61.6,58.0,28.02,WNW,296,0.0,5.0,88,0.00,,,8.46,WUHU216DAVISWMX,2013-06-12 04:01:00,
2013-06-12 00:02:00,61.6,58.0,28.03,WNW,296,0.0,5.0,88,0.00,,,8.46,WUHU216DAVISWMX,2013-06-12 04:02:00,
2013-06-12 00:07:00,61.5,57.6,28.02,West,277,0.0,5.0,87,0.00,,,8.46,WUHU216DAVISWMX,2013-06-12 04:07:00,
2013-06-12 00:12:00,61.3,57.7,28.02,WSW,253,0.0,5.0,88,0.00,,,8.46,WUHU216DAVISWMX,2013-06-12 04:12:00,
2013-06-12 00:17:00,61.2,57.9,28.01,WSW,253,2.0,3.0,89,0.00,,,8.46,WUHU216DAVISWMX,2013-06-12 04:17:00,
2013-06-12 00:22:00,60.8,57.5,28.01,WSW,254,0.0,3.0,89,0.00,,,8.46,WUHU216DAVISWMX,2013-06-12 04:22:00,
2013-06-12 00:27:00,60.7,57.7,28.01,WSW,254,0.0,3.0,90,0.00,,,8.46,WUHU216DAVISWMX,2013-06-12 04:27:00,
2013-06-12 00:32:00,60.4,57.4,28.01,WSW,254,0.0,0.0,90,0.00,,,8.46,WUHU216DAVISWMX,2013-06-12 04:32:00,
2013-06-12 00:37:00,60.2,57.2,28.01,WSW,254,0.0,0.0,90,0.00,,,8.46,WUHU216DAVISWMX,2013-06-12 04:37:00,
2013-06-12 00:42:00,60.1,57.4,28.02,WSW,254,0.0,0.0,91,0.00,,,8.46,WUHU216DAVISWMX,2013-06-12 04:42:00,
2013-06-12 00:47:00,59.9,57.2,28.02,WSW,254,0.0,0.0,91,0.00,,,8.46,WUHU216DAVISWMX,2013-06-12 04:47:00,
2013-06-12 00:52:00,59.9,57.5,28.02,WSW,254,0.0,0.0,92,0.00,,,8.46,WUHU216DAVISWMX,2013-06-12 04:52:00,
2013-06-12 00:57:00,59.9,57.5,28.02,WSW,254,0.0,0.0,92,0.00,,,8.46,WUHU216DAVISWMX,2013-06-12 04:57:00,
2013-06-12 01:02:00,60.1,57.7,28.02,WSW,254,0.0,0.0,92,0.00,,,8.46,WUHU216DAVISWMX,2013-06-12 05:02:00,
2013-06-12 01:07:00,60.1,57.7,28.02,WSW,254,0.0,2.0,92,0.00,,,8.46,WUHU216DAVISWMX,2013-06-12 05:07:00,
2013-06-12 01:12:00,60.2,57.5,28.02,WSW,254,0.0,2.0,91,0.00,,,8.46,WUHU216DAVISWMX,2013-06-12 05:12:00,
2013-06-12 01:17:00,60.2,57.5,28.02,WSW,254,0.0,0.0,91,0.00,,,8.46,WUHU216DAVISWMX,2013-06-12 05:17:00,
2013-06-12 01:22:00,60.2,57.8,28.02,WSW,254,0.0,1.0,92,0.00,,,8.46,WUHU216DAVISWMX,2013-06-12 05:22:00,
2013-06-12 01:27:00,60.2,57.8,28.02,WSW,254,0.0,1.0,92,0.00,,,8.46,WUHU216DAVISWMX,2013-06-12 05:27:00,
2013-06-12 01:32:00,60.1,58.0,28.02,WSW,254,0.0,0.0,93,0.00,,,8.46,WUHU216DAVISWMX,2013-06-12 05:32:00,
2013-06-12 01:37:00,59.9,57.2,28.02,WSW,254,0.0,0.0,91,0.00,,,8.46,WUHU216DAVISWMX,2013-06-12 05:37:00,
2013-06-12 01:42:00,60.0,57.9,28.02,WSW,254,0.0,2.0,93,0.00,,,8.46,WUHU216DAVISWMX,2013-06-12 05:42:00,
2013-06-12 01:47:00,59.9,57.5,28.02,WSW,254,0.0,2.0,92,0.00,,,8.46,WUHU216DAVISWMX,2013-06-12 05:47:00,
2013-06-12 01:52:00,59.9,57.5,28.02,WSW,254,0.0,0.0,92,0.00,,,8.46,WUHU216DAVISWMX,2013-06-12 05:52:00,
2013-06-12 01:57:00,59.9,57.8,28.02,WSW,254,2.0,2.0,93,0.00,,,8.46,WUHU216DAVISWMX,2013-06-12 05:57:00,
2013-06-12 02:02:00,60.1,58.0,28.02,WSW,254,0.0,2.0,93,0.00,,,8.46,WUHU216DAVISWMX,2013-06-12 06:02:00,
2013-06-12 02:07:00,60.1,58.3,28.01,WSW,250,0.0,3.0,94,0.00,,,8.46,WUHU216DAVISWMX,2013-06-12 06:07:00,
2013-06-12 02:12:00,60.1,58.0,28.02,WSW,250,1.0,3.0,93,0.00,,,8.46,WUHU216DAVISWMX,2013-06-12 06:12:00,
2013-06-12 02:17:00,60.0,57.9,28.02,WSW,250,0.0,2.0,93,0.00,,,8.46,WUHU216DAVISWMX,2013-06-12 06:17:00,
2013-06-12 02:22:00,59.9,58.1,28.02,WSW,250,0.0,2.0,94,0.00,,,8.46,WUHU216DAVISWMX,2013-06-12 06:22:00,
2013-06-12 02:27:00,59.8,58.0,28.01,WSW,250,0.0,1.0,94,0.00,,,8.46,WUHU216DAVISWMX,2013-06-12 06:27:00,
2013-06-12 02:32:00,59.8,58.0,28.02,WSW,250,0.0,1.0,94,0.00,,,8.46,WUHU216DAVISWMX,2013-06-12 06:32:00,
2013-06-12 02:37:00,59.6,57.8,28.01,WSW,250,0.0,0.0,94,0.00,,,8.46,WUHU216DAVISWMX,2013-06-12 06:37:00,
2013-06-12 02:42:00,59.5,57.7,28.01,WSW,250,0.0,0.0,94,0.00,,,8.46,WUHU216DAVISWMX,2013-06-12 06:42:00,
2013-06-12 02:47:00,59.5,57.7,28.02,WSW,248,0.0,3.0,94,0.00,,,8.46,WUHU216DAVISWMX,2013-06-12 06:47:00,
2013-06-12 02:52:00,59.4,57.9,28.01,SW,235,4.0,5.0,95,0.00,,,8.46,WUHU216DAVISWMX,2013-06-12 06:52:00,
2013-06-12 02:57:00,59.3,57.8,28.01,SW,236,2.0,5.0,95,0.00,,,8.46,WUHU216DAVISWMX,2013-06-12 06:57:00,
2013-06-12 03:02:00,59.3,57.5,28.01,WSW,237,0.0,5.0,94,0.00,,,8.46,WUHU216DAVISWMX,2013-06-12 07:02:00,
2013-06-12 03:07:00,59.3,57.8,28.01,SW,225,0.0,6.0,95,0.00,,,8.46,WUHU216DAVISWMX,2013-06-12 07:07:00,
2013-06-12 03:12:00,59.3,57.8,28.01,SW,232,0.0,6.0,95,0.00,,,8.46,WUHU216DAVISWMX,2013-06-12 07:12:00,
2013-06-12 03:17:00,59.4,57.9,28.01,SW,232,0.0,4.0,95,0.00,,,8.46,WUHU216DAVISWMX,2013-06-12 07:17:00,
2013-06-12 03:22:00,59.2,57.7,28.01,SW,232,0.0,3.0,95,0.00,,,8.46,WUHU216DAVISWMX,2013-06-12 07:22:00,
2013-06-12 03:27:00,59.2,57.4,28.01,SW,232,0.0,3.0,94,0.00,,,8.46,WUHU216DAVISWMX,2013-06-12 07:27:00,
2013-06-12 03:32:00,59.2,58.0,28.01,SW,230,0.0,3.0,96,0.00,,,8.46,WUHU216DAVISWMX,2013-06-12 07:32:00,
2013-06-12 03:37:00,59.1,57.6,28.01,SW,230,1.0,2.0,95,0.00,,,8.46,WUHU216DAVISWMX,2013-06-12 07:37:00,
2013-06-12 03:42:00,59.2,57.7,28.01,SW,225,0.0,4.0,95,0.00,,,8.46,WUHU216DAVISWMX,2013-06-12 07:42:00,
2013-06-12 03:47:00,59.5,58.0,28.01,WSW,255,0.0,4.0,95,0.00,,,8.46,WUHU216DAVISWMX,2013-06-12 07:47:00,
2013-06-12 03:52:00,59.5,58.0,28.00,West,260,0.0,3.0,95,0.00,,,8.46,WUHU216DAVISWMX,2013-06-12 07:52:00,
2013-06-12 03:57:00,59.5,58.0,28.01,West,260,0.0,0.0,95,0.00,,,8.46,WUHU216DAVISWMX,2013-06-12 07:57:00,
2013-06-12 04:02:00,60.1,58.3,28.01,SW,220,0.0,0.0,94,0.00,,,8.46,WUHU216DAVISWMX,2013-06-12 08:02:00,
2013-06-12 04:07:00,60.3,58.5,28.01,WSW,237,0.0,4.0,94,0.00,,,8.46,WUHU216DAVISWMX,2013-06-12 08:07:00,
2013-06-12 04:12:00,60.6,58.5,28.01,WSW,239,0.0,5.0,93,0.00,,,8.46,WUHU216DAVISWMX,2013-06-12 08:12:00,
2013-06-12 04:17:00,60.7,58.6,28.00,SW,232,3.0,10.0,93,0.00,,,8.46,WUHU216DAVISWMX,2013-06-12 08:17:00,
2013-06-12 04:23:00,61.0,58.6,28.00,West,260,4.0,10.0,92,0.00,,,8.46,WUHU216DAVISWMX,2013-06-12 08:23:00,
2013-06-12 04:28:00,61.3,58.9,28.01,WSW,242,5.0,9.0,92,0.00,,,8.46,WUHU216DAVISWMX,2013-06-12 08:28:00,
2013-06-12 04:33:00,61.2,58.2,28.00,WSW,258,5.0,7.0,90,0.00,,,8.46,WUHU216DAVISWMX,2013-06-12 08:33:00,
2013-06-12 04:38:00,61.3,58.3,28.00,WNW,298,6.0,7.0,90,0.00,,,8.46,WUHU216DAVISWMX,2013-06-12 08:38:00,
2013-06-12 04:43:00,61.1,58.1,28.00,SW,234,0.0,6.0,90,0.00,,,8.46,WUHU216DAVISWMX,2013-06-12 08:43:00,
2013-06-12 04:48:00,61.1,58.1,28.00,WSW,258,0.0,4.0,90,0.00,,,8.46,WUHU216DAVISWMX,2013-06-12 08:48:00,
2013-06-12 04:53:00,61.0,58.0,28.00,West,262,2.0,6.0,90,0.00,,,8.46,WUHU216DAVISWMX,2013-06-12 08:53:00,
2013-06-12 04:58:00,61.1,58.1,28.00,NW,316,0.0,6.0,90,0.00,,,8.46,WUHU216DAVISWMX,2013-06-12 08:58:00,
2013-06-12 05:03:00,61.0,58.0,28.00,SW,221,0.0,6.0,90,0.00,,,8.46,WUHU216DAVISWMX,2013-06-12 09:03:00,
2013-06-12 05:08:00,61.0,58.0,28.00,NW,307,0.0,6.0,90,0.00,,,8.46,WUHU216DAVISWMX,2013-06-12 09:08:00,
2013-06-12 05:13:00,61.0,58.0,28.00,WSW,245,3.0,9.0,90,0.00,,,8.46,WUHU216DAVISWMX,2013-06-12 09:13:00,
2013-06-12 05:18:00,60.9,57.9,28.00,WSW,256,3.0,11.0,90,0.00,,,8.46,WUHU216DAVISWMX,2013-06-12 09:18:00,
2013-06-12 05:23:00,61.0,58.0,28.00,WNW,283,0.0,11.0,90,0.00,,,8.46,WUHU216DAVISWMX,2013-06-12 09:23:00,
2013-06-12 05:28:00,60.9,57.9,28.01,West,268,0.0,7.0,90,0.00,,,8.46,WUHU216DAVISWMX,2013-06-12 09:28:00,
2013-06-12 05:33:00,60.7,57.7,28.00,West,260,3.0,4.0,90,0.00,,,8.46,WUHU216DAVISWMX,2013-06-12 09:33:00,
2013-06-12 05:38:00,60.7,57.7,28.01,WSW,246,0.0,4.0,90,0.00,,,8.46,WUHU216DAVISWMX,2013-06-12 09:38:00,
2013-06-12 05:43:00,60.5,57.5,28.01,WSW,241,2.0,4.0,90,0.00,,,8.46,WUHU216DAVISWMX,2013-06-12 09:43:00,
2013-06-12 05:48:00,60.4,57.4,28.01,WSW,248,0.0,6.0,90,0.00,,,8.46,WUHU216DAVISWMX,2013-06-12 09:48:00,
2013-06-12 05:53:00,60.3,57.6,28.01,West,273,0.0,7.0,91,0.00,,,8.46,WUHU216DAVISWMX,2013-06-12 09:53:00,
2013-06-12 05:58:00,60.2,57.5,28.01,WNW,283,2.0,7.0,91,0.00,,,8.46,WUHU216DAVISWMX,2013-06-12 09:58:00,
2013-06-12 06:03:00,60.2,57.8,28.02,SW,215,0.0,7.0,92,0.00,,,8.46,WUHU216DAVISWMX,2013-06-12 10:03:00,
2013-06-12 06:08:00,60.2,57.8,28.02,SW,236,0.0,4.0,92,0.00,,,8.46,WUHU216DAVISWMX,2013-06-12 10:08:00,
2013-06-12 06:13:00,60.2,57.8,28.02,WSW,249,0.0,3.0,92,0.00,,,8.46,WUHU216DAVISWMX,2013-06-12 10:13:00,
2013-06-12 06:18:00,60.1,57.4,28.02,SW,232,0.0,4.0,91,0.00,,,8.46,WUHU216DAVISWMX,2013-06-12 10:18:00,
2013-06-12 06:23:00,60.0,57.3,28.02,SSW,207,0.0,6.0,91,0.00,,,8.46,WUHU216DAVISWMX,2013-06-12 10:23:00,
2013-06-12 06:28:00,60.1,57.4,28.02,SW,236,0.0,6.0,91,0.00,,,8.46,WUHU216DAVISWMX,2013-06-12 10:28:00,
2013-06-12 06:33:00,60.0,57.3,28.02,SSW,209,0.0,5.0,91,0.00,,,8.46,WUHU216DAVISWMX,2013-06-12 10:33:00,
2013-06-12 06:38:00,60.1,57.7,28.03,SW,226,0.0,7.0,92,0.00,,,8.46,WUHU216DAVISWMX,2013-06-12 10:38:00,
2013-06-12 06:43:00,60.0,57.6,28.03,SW,232,0.0,8.0,92,0.00,,,8.46,WUHU216DAVISWMX,2013-06-12 10:43:00,
2013-06-12 06:48:00,60.1,57.4,28.03,WSW,251,0.0,8.0,91,0.00,,,8.46,WUHU216DAVISWMX,2013-06-12 10:48:00,
2013-06-12 06:53:00,60.2,57.8,28.03,WSW,238,0.0,7.0,92,0.00,,,8.46,WUHU216DAVISWMX,2013-06-12 10:53:00,
2013-06-12 06:58:00,60.3,57.6,28.03,WSW,238,0.0,5.0,91,0.00,,,8.46,WUHU216DAVISWMX,2013-06-12 10:58:00,
2013-06-12 07:03:00,60.4,57.7,28.03,WSW,251,0.0,4.0,91,0.00,,,8.46,WUHU216DAVISWMX,2013-06-12 11:03:00,
2013-06-12 07:08:00,60.5,58.1,28.03,WSW,250,0.0,4.0,92,0.00,,,8.46,WUHU216DAVISWMX,2013-06-12 11:08:00,
2013-06-12 07:13:00,60.7,58.3,28.04,WSW,240,0.0,4.0,92,0.00,,,8.46,WUHU216DAVISWMX,2013-06-12 11:13:00,
2013-06-12 07:18:00,60.8,58.1,28.03,WSW,255,0.0,5.0,91,0.00,,,8.46,WUHU216DAVISWMX,2013-06-12 11:18:00,
2013-06-12 07:23:00,61.1,58.4,28.03,WSW,245,0.0,5.0,91,0.00,,,8.46,WUHU216DAVISWMX,2013-06-12 11:23:00,
2013-06-12 07:28:00,61.4,58.4,28.03,SW,215,0.0,4.0,90,0.00,,,8.46,WUHU216DAVISWMX,2013-06-12 11:28:00,
2013-06-12 07:33:00,61.8,58.8,28.04,West,276,0.0,5.0,90,0.00,,,8.46,WUHU216DAVISWMX,2013-06-12 11:33:00,
2013-06-12 07:38:00,62.0,58.7,28.04,NNW,335,0.0,5.0,89,0.00,,,8.46,WUHU216DAVISWMX,2013-06-12 11:38:00,
2013-06-12 07:43:00,62.3,58.7,28.04,WNW,288,0.0,7.0,88,0.00,,,8.46,WUHU216DAVISWMX,2013-06-12 11:43:00,
2013-06-12 07:48:00,62.4,58.8,28.05,WNW,293,0.0,8.0,88,0.00,,,8.46,WUHU216DAVISWMX,2013-06-12 11:48:00,
2013-06-12 07:53:00,62.4,58.5,28.05,West,272,9.0,9.0,87,0.00,,,8.46,WUHU216DAVISWMX,2013-06-12 11:53:00,
2013-06-12 07:58:00,62.7,58.8,28.05,WSW,250,5.0,9.0,87,0.00,,,8.46,WUHU216DAVISWMX,2013-06-12 11:58:00,
2013-06-12 08:03:00,62.9,59.0,28.05,West,266,1.0,9.0,87,0.00,,,8.46,WUHU216DAVISWMX,2013-06-12 12:03:00,
2013-06-12 08:08:00,63.0,58.7,28.05,WNW,282,0.0,12.0,86,0.00,,,8.46,WUHU216DAVISWMX,2013-06-12 12:08:00,
2013-06-12 08:13:00,63.2,58.9,28.05,WNW,295,0.0,12.0,86,0.00,,,8.46,WUHU216DAVISWMX,2013-06-12 12:13:00,
2013-06-12 08:18:00,63.2,58.9,28.05,SSW,204,0.0,14.0,86,0.00,,,8.46,WUHU216DAVISWMX,2013-06-12 12:18:00,
2013-06-12 08:23:00,63.5,59.2,28.05,WNW,296,2.0,14.0,86,0.00,,,8.46,WUHU216DAVISWMX,2013-06-12 12:23:00,
2013-06-12 08:28:00,63.3,58.7,28.05,WNW,301,6.0,12.0,85,0.00,,,8.46,WUHU216DAVISWMX,2013-06-12 12:28:00,
2013-06-12 08:33:00,63.5,59.2,28.05,WNW,292,0.0,12.0,86,0.00,,,8.46,WUHU216DAVISWMX,2013-06-12 12:33:00,
2013-06-12 08:38:00,63.6,59.0,28.05,WNW,285,0.0,8.0,85,0.00,,,8.46,WUHU216DAVISWMX,2013-06-12 12:38:00,
2013-06-12 08:43:00,63.6,59.0,28.05,West,267,10.0,14.0,85,0.00,,,8.46,WUHU216DAVISWMX,2013-06-12 12:43:00,
2013-06-12 08:48:00,63.3,58.7,28.05,WNW,302,0.0,14.0,85,0.00,,,8.46,WUHU216DAVISWMX,2013-06-12 12:48:00,
2013-06-12 08:53:00,63.3,59.0,28.05,West,276,7.0,11.0,86,0.00,,,8.46,WUHU216DAVISWMX,2013-06-12 12:53:00,
2013-06-12 08:58:00,63.3,59.0,28.05,West,280,6.0,10.0,86,0.00,,,8.46,WUHU216DAVISWMX,2013-06-12 12:58:00,
2013-06-12 09:03:00,63.3,58.7,28.05,West,265,5.0,10.0,85,0.00,,,8.46,WUHU216DAVISWMX,2013-06-12 13:03:00,
2013-06-12 09:08:00,63.3,59.0,28.05,WNW,289,0.0,9.0,86,0.00,,,8.46,WUHU216DAVISWMX,2013-06-12 13:08:00,
2013-06-12 09:13:00,63.5,59.2,28.05,West,259,8.0,10.0,86,0.00,,,8.46,WUHU216DAVISWMX,2013-06-12 13:13:00,
2013-06-12 09:18:00,63.8,59.5,28.05,WNW,302,10.0,10.0,86,0.00,,,8.46,WUHU216DAVISWMX,2013-06-12 13:18:00,
2013-06-12 09:23:00,64.2,59.6,28.05,WNW,299,2.0,11.0,85,0.00,,,8.46,WUHU216DAVISWMX,2013-06-12 13:23:00,
2013-06-12 09:28:00,64.4,59.5,28.05,NW,305,9.0,11.0,84,0.00,,,8.46,WUHU216DAVISWMX,2013-06-12 13:28:00,
2013-06-12 09:33:00,64.4,59.5,28.05,WNW,292,1.0,12.0,84,0.00,,,8.46,WUHU216DAVISWMX,2013-06-12 13:33:00,
2013-06-12 09:38:00,64.7,59.5,28.04,WNW,291,10.0,12.0,83,0.00,,,8.46,WUHU216DAVISWMX,2013-06-12 13:38:00,
2013-06-12 09:43:00,65.2,59.9,28.04,NW,307,4.0,10.0,83,0.00,,,8.46,WUHU216DAVISWMX,2013-06-12 13:43:00,
2013-06-12 09:48:00,65.6,59.7,28.04,WNW,301,1.0,10.0,81,0.00,,,8.46,WUHU216DAVISWMX,2013-06-12 13:48:00,
2013-06-12 09:53:00,65.8,60.2,28.04,WSW,249,0.0,11.0,82,0.00,,,8.46,WUHU216DAVISWMX,2013-06-12 13:53:00,
2013-06-12 09:58:00,65.9,59.6,28.04,NW,317,1.0,11.0,80,0.00,,,8.46,WUHU216DAVISWMX,2013-06-12 13:58:00,
2013-06-12 10:03:00,66.1,59.8,28.03,NW,313,4.0,11.0,80,0.00,,,8.46,WUHU216DAVISWMX,2013-06-12 14:03:00,
2013-06-12 10:08:00,66.4,60.1,28.03,West,277,5.0,10.0,80,0.00,,,8.46,WUHU216DAVISWMX,2013-06-12 14:08:00,
2013-06-12 10:13:00,66.8,60.5,28.03,WNW,292,5.0,10.0,80,0.00,,,8.46,WUHU216DAVISWMX,2013-06-12 14:13:00,
2013-06-12 10:18:00,67.2,60.6,28.03,West,279,2.0,10.0,79,0.00,,,8.46,WUHU216DAVISWMX,2013-06-12 14:18:00,
2013-06-12 10:23:00,67.6,60.6,28.03,NW,318,3.0,10.0,78,0.00,,,8.46,WUHU216DAVISWMX,2013-06-12 14:23:00,
2013-06-12 10:28:00,67.6,60.6,28.03,NW,323,7.0,10.0,78,0.00,,,8.46,WUHU216DAVISWMX,2013-06-12 14:28:00,
2013-06-12 10:33:00,67.4,60.0,28.03,WNW,283,2.0,12.0,77,0.00,,,8.46,WUHU216DAVISWMX,2013-06-12 14:33:00,
2013-06-12 10:38:00,67.8,60.4,28.03,WNW,298,4.0,12.0,77,0.00,,,8.46,WUHU216DAVISWMX,2013-06-12 14:38:00,
2013-06-12 10:43:00,68.1,60.7,28.03,WNW,292,7.0,12.0,77,0.00,,,8.46,WUHU216DAVISWMX,2013-06-12 14:43:00,
2013-06-12 10:48:00,68.2,60.5,28.03,WNW,283,3.0,14.0,76,0.00,,,8.46,WUHU216DAVISWMX,2013-06-12 14:48:00,
2013-06-12 10:53:00,68.3,60.2,28.03,NW,306,6.0,14.0,75,0.00,,,8.46,WUHU216DAVISWMX,2013-06-12 14:53:00,
2013-06-12 10:58:00,68.5,60.4,28.03,WNW,293,3.0,13.0,75,0.00,,,8.46,WUHU216DAVISWMX,2013-06-12 14:58:00,
2013-06-12 11:03:00,68.6,60.1,28.04,WNW,297,9.0,12.0,74,0.00,,,8.46,WUHU216DAVISWMX,2013-06-12 15:03:00,
2013-06-12 11:08:00,68.7,59.1,28.04,NW,318,9.0,13.0,71,0.00,,,8.46,WUHU216DAVISWMX,2013-06-12 15:08:00,
2013-06-12 11:13:00,68.8,59.6,28.04,West,280,9.0,13.0,72,0.00,,,8.46,WUHU216DAVISWMX,2013-06-12 15:13:00,
2013-06-12 11:18:00,68.7,59.1,28.04,NW,326,6.0,16.0,71,0.00,,,8.46,WUHU216DAVISWMX,2013-06-12 15:18:00,
2013-06-12 11:23:00,68.8,59.6,28.04,West,269,7.0,16.0,72,0.00,,,8.46,WUHU216DAVISWMX,2013-06-12 15:23:00,
2013-06-12 11:28:00,68.8,59.6,28.04,NNW,330,1.0,14.0,72,0.00,,,8.46,WUHU216DAVISWMX,2013-06-12 15:28:00,
2013-06-12 11:33:00,69.5,59.9,28.04,NW,306,6.0,13.0,71,0.00,,,8.46,WUHU216DAVISWMX,2013-06-12 15:33:00,
2013-06-12 11:38:00,69.7,59.7,28.04,WNW,295,14.0,14.0,70,0.00,,,8.46,WUHU216DAVISWMX,2013-06-12 15:38:00,
2013-06-12 11:43:00,69.6,58.8,28.04,West,271,12.0,18.0,68,0.00,,,8.46,WUHU216DAVISWMX,2013-06-12 15:43:00,
2013-06-12 11:48:00,69.2,59.6,28.04,WNW,285,7.0,18.0,71,0.00,,,8.46,WUHU216DAVISWMX,2013-06-12 15:48:00,
2013-06-12 11:53:00,69.5,59.1,28.05,WNW,283,7.0,15.0,69,0.00,,,8.46,WUHU216DAVISWMX,2013-06-12 15:53:00,
2013-06-12 11:58:00,69.7,59.7,28.05,West,267,1.0,13.0,70,0.00,,,8.46,WUHU216DAVISWMX,2013-06-12 15:58:00,
2013-06-12 12:03:00,69.5,58.7,28.05,West,259,13.0,16.0,68,0.00,,,8.46,WUHU216DAVISWMX,2013-06-12 16:03:00,
2013-06-12 12:08:00,70.1,60.0,28.05,WNW,287,2.0,16.0,70,0.00,,,8.46,WUHU216DAVISWMX,2013-06-12 16:08:00,
2013-06-12 12:13:00,70.5,59.6,28.05,West,267,9.0,13.0,68,0.00,,,8.46,WUHU216DAVISWMX,2013-06-12 16:13:00,
2013-06-12 12:18:00,70.9,59.6,28.06,NW,306,2.0,13.0,67,0.00,,,8.46,WUHU216DAVISWMX,2013-06-12 16:18:00,
2013-06-12 12:23:00,70.6,58.5,28.06,West,273,10.0,16.0,65,0.00,,,8.46,WUHU216DAVISWMX,2013-06-12 16:23:00,
2013-06-12 12:28:00,70.2,58.5,28.06,West,269,11.0,16.0,66,0.00,,,8.46,WUHU216DAVISWMX,2013-06-12 16:28:00,
2013-06-12 12:33:00,70.0,58.7,28.06,WNW,295,10.0,14.0,67,0.00,,,8.46,WUHU216DAVISWMX,2013-06-12 16:33:00,
2013-06-12 12:38:00,69.8,58.9,28.06,WNW,287,7.0,14.0,68,0.00,,,8.46,WUHU216DAVISWMX,2013-06-12 16:38:00,
2013-06-12 12:43:00,69.6,58.8,28.06,WNW,297,6.0,20.0,68,0.00,,,8.46,WUHU216DAVISWMX,2013-06-12 16:43:00,
2013-06-12 12:48:00,69.7,59.7,28.05,West,263,10.0,20.0,70,0.00,,,8.46,WUHU216DAVISWMX,2013-06-12 16:48:00,
2013-06-12 12:53:00,70.5,59.6,28.05,West,271,9.0,16.0,68,0.00,,,8.46,WUHU216DAVISWMX,2013-06-12 16:53:00,
2013-06-12 12:58:00,70.1,58.8,28.05,WNW,288,9.0,15.0,67,0.00,,,8.46,WUHU216DAVISWMX,2013-06-12 16:58:00,
2013-06-12 13:03:00,70.0,59.1,28.05,West,261,13.0,17.0,68,0.00,,,8.46,WUHU216DAVISWMX,2013-06-12 17:03:00,
2013-06-12 13:08:00,70.2,58.9,28.04,NW,305,7.0,17.0,67,0.00,,,8.46,WUHU216DAVISWMX,2013-06-12 17:08:00,
2013-06-12 13:13:00,70.8,59.1,28.04,NW,307,9.0,14.0,66,0.00,,,8.46,WUHU216DAVISWMX,2013-06-12 17:13:00,
2013-06-12 13:18:00,71.1,58.9,28.04,NW,326,7.0,15.0,65,0.00,,,8.46,WUHU216DAVISWMX,2013-06-12 17:18:00,
2013-06-12 13:23:00,71.2,59.0,28.04,West,269,13.0,15.0,65,0.00,,,8.46,WUHU216DAVISWMX,2013-06-12 17:23:00,
2013-06-12 13:28:00,71.0,58.4,28.04,WNW,292,0.0,17.0,64,0.00,,,8.46,WUHU216DAVISWMX,2013-06-12 17:28:00,
2013-06-12 13:33:00,70.9,58.7,28.04,West,278,8.0,17.0,65,0.00,,,8.46,WUHU216DAVISWMX,2013-06-12 17:33:00,
2013-06-12 13:38:00,70.7,58.6,28.04,West,264,5.0,14.0,65,0.00,,,8.46,WUHU216DAVISWMX,2013-06-12 17:38:00,
2013-06-12 13:43:00,70.4,58.3,28.04,WNW,282,2.0,13.0,65,0.00,,,8.46,WUHU216DAVISWMX,2013-06-12 17:43:00,
2013-06-12 13:48:00,71.0,58.8,28.04,NW,309,7.0,10.0,65,0.00,,,8.46,WUHU216DAVISWMX,2013-06-12 17:48:00,
2013-06-12 13:53:00,71.0,58.4,28.04,North,356,0.0,11.0,64,0.00,,,8.46,WUHU216DAVISWMX,2013-06-12 17:53:00,
2013-06-12 13:58:00,71.2,58.6,28.04,NNW,334,3.0,11.0,64,0.00,,,8.46,WUHU216DAVISWMX,2013-06-12 17:58:00,
2013-06-12 14:03:00,71.2,57.7,28.03,WNW,288,12.0,12.0,62,0.00,,,8.46,WUHU216DAVISWMX,2013-06-12 18:03:00,
2013-06-12 14:08:00,70.7,57.7,28.03,NW,306,8.0,14.0,63,0.00,,,8.46,WUHU216DAVISWMX,2013-06-12 18:08:00,
2013-06-12 14:13:00,70.3,56.9,28.04,WNW,288,10.0,14.0,62,0.00,,,8.46,WUHU216DAVISWMX,2013-06-12 18:13:00,
2013-06-12 14:18:00,70.1,57.1,28.04,WNW,285,8.0,14.0,63,0.00,,,8.46,WUHU216DAVISWMX,2013-06-12 18:18:00,
2013-06-12 14:23:00,70.3,57.7,28.04,NW,306,13.0,14.0,64,0.00,,,8.46,WUHU216DAVISWMX,2013-06-12 18:23:00,
2013-06-12 14:28:00,70.1,57.5,28.04,NW,322,0.0,13.0,64,0.00,,,8.46,WUHU216DAVISWMX,2013-06-12 18:28:00,
2013-06-12 14:33:00,70.5,57.9,28.04,NW,308,8.0,12.0,64,0.00,,,8.46,WUHU216DAVISWMX,2013-06-12 18:33:00,
2013-06-12 14:38:00,69.9,56.9,28.04,West,280,2.0,15.0,63,0.00,,,8.46,WUHU216DAVISWMX,2013-06-12 18:38:00,
2013-06-12 14:43:00,69.6,57.5,28.05,West,270,11.0,17.0,65,0.00,,,8.46,WUHU216DAVISWMX,2013-06-12 18:43:00,
2013-06-12 14:48:00,69.7,57.6,28.04,WNW,303,8.0,17.0,65,0.00,,,8.46,WUHU216DAVISWMX,2013-06-12 18:48:00,
2013-06-12 14:53:00,69.4,56.9,28.03,West,269,5.0,16.0,64,0.00,,,8.46,WUHU216DAVISWMX,2013-06-12 18:53:00,
2013-06-12 14:58:00,68.7,56.2,28.04,NW,309,7.0,16.0,64,0.00,,,8.46,WUHU216DAVISWMX,2013-06-12 18:58:00,
2013-06-12 15:03:00,68.4,55.9,28.03,NW,305,4.0,13.0,64,0.00,,,8.46,WUHU216DAVISWMX,2013-06-12 19:03:00,
2013-06-12 15:08:00,66.9,54.9,28.04,West,275,7.0,12.0,65,0.00,,,8.46,WUHU216DAVISWMX,2013-06-12 19:08:00,
2013-06-12 15:13:00,65.0,52.7,28.04,WNW,282,10.0,15.0,64,0.00,,,8.46,WUHU216DAVISWMX,2013-06-12 19:13:00,
2013-06-12 15:18:00,63.6,51.8,28.04,WNW,294,9.0,16.0,65,0.00,,,8.46,WUHU216DAVISWMX,2013-06-12 19:18:00,
2013-06-12 15:23:00,63.0,51.6,28.03,WNW,287,9.0,16.0,66,0.00,,,8.46,WUHU216DAVISWMX,2013-06-12 19:23:00,
2013-06-12 15:28:00,64.3,52.9,28.04,WNW,293,4.0,12.0,66,0.00,,,8.46,WUHU216DAVISWMX,2013-06-12 19:28:00,
2013-06-12 15:33:00,64.6,53.6,28.03,NW,304,0.0,12.0,67,0.00,,,8.46,WUHU216DAVISWMX,2013-06-12 19:33:00,
2013-06-12 15:39:00,65.2,54.5,28.02,WSW,248,0.0,10.0,68,0.00,,,8.46,WUHU216DAVISWMX,2013-06-12 19:39:00,
2013-06-12 15:44:00,65.4,54.7,28.02,West,265,0.0,9.0,68,0.00,,,8.46,WUHU216DAVISWMX,2013-06-12 19:44:00,
2013-06-12 15:49:00,65.4,55.1,28.02,West,260,0.0,9.0,69,0.00,,,8.46,WUHU216DAVISWMX,2013-06-12 19:49:00,
2013-06-12 15:54:00,66.4,55.7,28.01,WSW,245,0.0,9.0,68,0.00,,,8.46,WUHU216DAVISWMX,2013-06-12 19:54:00,
2013-06-12 15:59:00,66.2,56.3,28.01,WNW,301,0.0,10.0,70,0.00,,,8.46,WUHU216DAVISWMX,2013-06-12 19:59:00,
2013-06-12 16:04:00,65.8,55.5,28.00,WNW,294,0.0,10.0,69,0.00,,,8.46,WUHU216DAVISWMX,2013-06-12 20:04:00,
2013-06-12 16:09:00,65.9,55.6,28.00,WNW,291,3.0,9.0,69,0.00,,,8.46,WUHU216DAVISWMX,2013-06-12 20:09:00,
2013-06-12 16:14:00,66.9,55.8,28.00,WNW,283,0.0,9.0,67,0.00,,,8.46,WUHU216DAVISWMX,2013-06-12 20:14:00,
2013-06-12 16:19:00,67.7,56.9,28.00,SW,232,0.0,7.0,68,0.00,,,8.46,WUHU216DAVISWMX,2013-06-12 20:19:00,
2013-06-12 16:24:00,67.9,55.5,28.00,WNW,303,10.0,14.0,64,0.00,,,8.46,WUHU216DAVISWMX,2013-06-12 20:24:00,
2013-06-12 16:29:00,67.8,55.4,27.99,WNW,296,4.0,14.0,64,0.00,,,8.46,WUHU216DAVISWMX,2013-06-12 20:29:00,
2013-06-12 16:34:00,67.8,55.4,27.99,West,268,0.0,14.0,64,0.00,,,8.46,WUHU216DAVISWMX,2013-06-12 20:34:00,
2013-06-12 16:39:00,67.6,55.6,28.00,WNW,301,2.0,11.0,65,0.00,,,8.46,WUHU216DAVISWMX,2013-06-12 20:39:00,
2013-06-12 16:44:00,67.0,55.9,28.00,West,281,4.0,11.0,67,0.00,,,8.46,WUHU216DAVISWMX,2013-06-12 20:44:00,
2013-06-12 16:49:00,67.8,54.9,28.00,West,271,5.0,15.0,63,0.00,,,8.46,WUHU216DAVISWMX,2013-06-12 20:49:00,
2013-06-12 16:54:00,67.5,55.1,28.00,SW,219,1.0,15.0,64,0.00,,,8.46,WUHU216DAVISWMX,2013-06-12 20:54:00,
2013-06-12 16:59:00,67.3,55.3,27.99,SW,221,4.0,11.0,65,0.00,,,8.46,WUHU216DAVISWMX,2013-06-12 20:59:00,
2013-06-12 17:04:00,68.2,55.7,27.99,West,276,5.0,12.0,64,0.00,,,8.46,WUHU216DAVISWMX,2013-06-12 21:04:00,
2013-06-12 17:09:00,67.3,55.3,28.00,WNW,301,4.0,12.0,65,0.00,,,8.46,WUHU216DAVISWMX,2013-06-12 21:09:00,
2013-06-12 17:14:00,68.2,56.2,28.00,West,262,8.0,11.0,65,0.00,,,8.46,WUHU216DAVISWMX,2013-06-12 21:14:00,
2013-06-12 17:19:00,67.7,55.3,28.00,West,278,6.0,11.0,64,0.00,,,8.46,WUHU216DAVISWMX,2013-06-12 21:19:00,
2013-06-12 17:24:00,68.3,56.7,27.99,WNW,297,0.0,11.0,66,0.00,,,8.46,WUHU216DAVISWMX,2013-06-12 21:24:00,
2013-06-12 17:29:00,68.5,56.9,27.98,WSW,251,1.0,9.0,66,0.00,,,8.46,WUHU216DAVISWMX,2013-06-12 21:29:00,
2013-06-12 17:34:00,68.8,57.2,27.97,WSW,239,0.0,9.0,66,0.00,,,8.46,WUHU216DAVISWMX,2013-06-12 21:34:00,
2013-06-12 17:39:00,68.6,57.4,27.98,West,272,2.0,6.0,67,0.00,,,8.46,WUHU216DAVISWMX,2013-06-12 21:39:00,
2013-06-12 17:44:00,68.7,57.9,28.00,NW,304,5.0,7.0,68,0.00,,,8.46,WUHU216DAVISWMX,2013-06-12 21:44:00,
2013-06-12 17:49:00,68.5,57.7,28.01,WNW,292,5.0,9.0,68,0.00,,,8.46,WUHU216DAVISWMX,2013-06-12 21:49:00,
2013-06-12 17:54:00,68.3,57.9,28.01,WNW,301,2.0,9.0,69,0.00,,,8.46,WUHU216DAVISWMX,2013-06-12 21:54:00,
2013-06-12 17:59:00,68.2,57.4,28.01,WNW,290,2.0,8.0,68,0.00,,,8.46,WUHU216DAVISWMX,2013-06-12 21:59:00,
2013-06-12 18:04:00,68.0,57.6,28.02,NW,314,0.0,8.0,69,0.00,,,8.46,WUHU216DAVISWMX,2013-06-12 22:04:00,
2013-06-12 18:09:00,67.9,57.5,28.01,NW,320,0.0,7.0,69,0.00,,,8.46,WUHU216DAVISWMX,2013-06-12 22:09:00,
2013-06-12 18:14:00,67.8,57.8,28.01,NW,306,0.0,7.0,70,0.00,,,8.46,WUHU216DAVISWMX,2013-06-12 22:14:00,
2013-06-12 18:19:00,67.9,57.9,28.01,WNW,298,0.0,6.0,70,0.00,,,8.46,WUHU216DAVISWMX,2013-06-12 22:19:00,
2013-06-12 18:24:00,67.8,57.8,28.00,WNW,286,0.0,6.0,70,0.00,,,8.46,WUHU216DAVISWMX,2013-06-12 22:24:00,
2013-06-12 18:29:00,67.7,58.1,28.00,WNW,287,0.0,5.0,71,0.00,,,8.46,WUHU216DAVISWMX,2013-06-12 22:29:00,
2013-06-12 18:34:00,67.4,57.8,28.00,NNW,333,0.0,5.0,71,0.00,,,8.46,WUHU216DAVISWMX,2013-06-12 22:34:00,
2013-06-12 18:39:00,68.0,58.4,28.01,NW,306,6.0,6.0,71,0.00,,,8.46,WUHU216DAVISWMX,2013-06-12 22:39:00,
2013-06-12 18:44:00,68.0,58.0,28.01,WNW,292,1.0,7.0,70,0.00,,,8.46,WUHU216DAVISWMX,2013-06-12 22:44:00,
2013-06-12 18:49:00,68.0,58.8,28.01,West,271,0.0,7.0,72,0.00,,,8.46,WUHU216DAVISWMX,2013-06-12 22:49:00,
2013-06-12 18:54:00,67.8,58.6,28.01,WNW,287,4.0,6.0,72,0.00,,,8.46,WUHU216DAVISWMX,2013-06-12 22:54:00,
2013-06-12 18:59:00,67.8,58.6,28.00,West,280,0.0,6.0,72,0.00,,,8.46,WUHU216DAVISWMX,2013-06-12 22:59:00,
2013-06-12 19:04:00,67.5,58.7,28.00,West,280,0.0,5.0,73,0.00,,,8.46,WUHU216DAVISWMX,2013-06-12 23:04:00,
2013-06-12 19:09:00,67.1,58.3,28.00,WNW,294,2.0,5.0,73,0.00,,,8.46,WUHU216DAVISWMX,2013-06-12 23:09:00,
2013-06-12 19:14:00,66.8,58.0,28.01,WNW,303,2.0,5.0,73,0.00,,,8.46,WUHU216DAVISWMX,2013-06-12 23:14:00,
2013-06-12 19:19:00,66.1,57.7,28.02,WNW,293,5.0,9.0,74,0.00,,,8.46,WUHU216DAVISWMX,2013-06-12 23:19:00,
2013-06-12 19:24:00,64.9,56.9,28.01,West,277,0.0,9.0,75,0.00,,,8.46,WUHU216DAVISWMX,2013-06-12 23:24:00,
2013-06-12 19:29:00,64.8,57.2,28.01,West,276,0.0,5.0,76,0.00,,,8.46,WUHU216DAVISWMX,2013-06-12 23:29:00,
2013-06-12 19:34:00,64.5,56.9,28.00,West,276,0.0,1.0,76,0.00,,,8.46,WUHU216DAVISWMX,2013-06-12 23:34:00,
2013-06-12 19:39:00,65.1,57.5,28.00,West,276,0.0,0.0,76,0.00,,,8.46,WUHU216DAVISWMX,2013-06-12 23:39:00,
2013-06-12 19:44:00,63.9,56.3,28.01,West,277,0.0,0.0,76,0.00,,,8.46,WUHU216DAVISWMX,2013-06-12 23:44:00,
2013-06-12 19:49:00,64.5,56.5,28.01,West,277,0.0,5.0,75,0.00,,,8.46,WUHU216DAVISWMX,2013-06-12 23:49:00,
2013-06-12 19:54:00,64.4,56.8,28.00,West,277,0.0,5.0,76,0.00,,,8.46,WUHU216DAVISWMX,2013-06-12 23:54:00,
2013-06-12 19:59:00,64.1,56.5,28.00,West,271,0.0,3.0,76,0.00,,,8.46,WUHU216DAVISWMX,2013-06-12 23:59:00,
2013-06-12 20:04:00,62.1,54.9,27.99,West,272,0.0,2.0,77,0.00,,,8.46,WUHU216DAVISWMX,2013-06-13 00:04:00,
2013-06-12 20:09:00,64.8,57.5,27.99,West,271,0.0,1.0,77,0.00,,,8.46,WUHU216DAVISWMX,2013-06-13 00:09:00,
2013-06-12 20:14:00,64.3,57.0,27.99,West,271,0.0,1.0,77,0.00,,,8.46,WUHU216DAVISWMX,2013-06-13 00:14:00,
2013-06-12 20:19:00,64.0,57.1,27.99,West,271,0.0,1.0,78,0.00,,,8.46,WUHU216DAVISWMX,2013-06-13 00:19:00,
2013-06-12 20:24:00,64.3,57.7,27.98,West,270,0.0,0.0,79,0.00,,,8.46,WUHU216DAVISWMX,2013-06-13 00:24:00,
2013-06-12 20:29:00,64.4,58.2,27.98,West,270,0.0,0.0,80,0.00,,,8.46,WUHU216DAVISWMX,2013-06-13 00:29:00,
2013-06-12 20:34:00,63.5,57.3,27.99,West,270,1.0,2.0,80,0.00,,,8.46,WUHU216DAVISWMX,2013-06-13 00:34:00,
2013-06-12 20:39:00,64.4,58.5,27.99,West,270,0.0,2.0,81,0.00,,,8.46,WUHU216DAVISWMX,2013-06-13 00:39:00,
2013-06-12 20:44:00,64.1,58.5,28.00,West,270,0.0,1.0,82,0.00,,,8.46,WUHU216DAVISWMX,2013-06-13 00:44:00,
2013-06-12 20:49:00,63.7,58.1,28.00,West,270,0.0,1.0,82,0.00,,,8.46,WUHU216DAVISWMX,2013-06-13 00:49:00,
2013-06-12 20:54:00,63.6,58.0,28.00,West,270,0.0,1.0,82,0.00,,,8.46,WUHU216DAVISWMX,2013-06-13 00:54:00,
2013-06-12 20:59:00,63.6,58.4,28.00,West,270,0.0,3.0,83,0.00,,,8.46,WUHU216DAVISWMX,2013-06-13 00:59:00,
2013-06-12 21:04:00,63.9,58.7,28.00,West,269,0.0,3.0,83,0.00,,,8.46,WUHU216DAVISWMX,2013-06-13 01:04:00,
2013-06-12 21:09:00,63.4,58.5,28.00,West,270,0.0,2.0,84,0.00,,,8.46,WUHU216DAVISWMX,2013-06-13 01:09:00,
2013-06-12 21:14:00,63.5,58.6,28.00,West,269,0.0,3.0,84,0.00,,,8.46,WUHU216DAVISWMX,2013-06-13 01:14:00,
2013-06-12 21:19:00,62.9,58.0,28.01,West,270,0.0,3.0,84,0.00,,,8.46,WUHU216DAVISWMX,2013-06-13 01:19:00,
2013-06-12 21:24:00,62.7,57.8,28.00,West,270,0.0,0.0,84,0.00,,,8.46,WUHU216DAVISWMX,2013-06-13 01:24:00,
2013-06-12 21:29:00,62.5,57.9,28.00,West,270,0.0,0.0,85,0.00,,,8.46,WUHU216DAVISWMX,2013-06-13 01:29:00,
2013-06-12 21:34:00,62.5,58.3,28.00,West,270,0.0,1.0,86,0.00,,,8.46,WUHU216DAVISWMX,2013-06-13 01:34:00,
2013-06-12 21:39:00,62.2,58.0,28.00,West,270,0.0,1.0,86,0.00,,,8.46,WUHU216DAVISWMX,2013-06-13 01:39:00,
2013-06-12 21:44:00,62.0,58.1,28.00,West,270,0.0,2.0,87,0.00,,,8.46,WUHU216DAVISWMX,2013-06-13 01:44:00,
2013-06-12 21:49:00,62.1,58.2,28.00,West,270,0.0,2.0,87,0.00,,,8.46,WUHU216DAVISWMX,2013-06-13 01:49:00,
2013-06-12 21:54:00,62.4,58.8,28.00,West,270,0.0,0.0,88,0.00,,,8.46,WUHU216DAVISWMX,2013-06-13 01:54:00,
2013-06-12 21:59:00,62.2,58.6,28.00,West,270,0.0,0.0,88,0.00,,,8.46,WUHU216DAVISWMX,2013-06-13 01:59:00,
2013-06-12 22:04:00,62.3,58.7,28.00,West,270,0.0,0.0,88,0.00,,,8.46,WUHU216DAVISWMX,2013-06-13 02:04:00,
2013-06-12 22:09:00,62.3,58.7,28.00,West,270,0.0,1.0,88,0.00,,,8.46,WUHU216DAVISWMX,2013-06-13 02:09:00,
2013-06-12 22:14:00,62.2,58.6,28.00,West,270,0.0,1.0,88,0.00,,,8.46,WUHU216DAVISWMX,2013-06-13 02:14:00,
2013-06-12 22:19:00,62.2,58.6,28.00,West,270,0.0,0.0,88,0.00,,,8.46,WUHU216DAVISWMX,2013-06-13 02:19:00,
2013-06-12 22:24:00,62.2,58.6,28.00,West,270,0.0,0.0,88,0.00,,,8.46,WUHU216DAVISWMX,2013-06-13 02:24:00,
2013-06-12 22:29:00,62.1,58.5,28.00,West,270,0.0,0.0,88,0.00,,,8.46,WUHU216DAVISWMX,2013-06-13 02:29:00,
2013-06-12 22:34:00,61.8,58.2,27.99,West,270,0.0,0.0,88,0.00,,,8.46,WUHU216DAVISWMX,2013-06-13 02:34:00,
2013-06-12 22:39:00,62.1,58.5,27.99,West,269,0.0,0.0,88,0.00,,,8.46,WUHU216DAVISWMX,2013-06-13 02:39:00,
2013-06-12 22:44:00,61.6,58.3,27.99,West,270,0.0,0.0,89,0.00,,,8.46,WUHU216DAVISWMX,2013-06-13 02:44:00,
2013-06-12 22:49:00,61.5,58.2,27.98,West,269,0.0,1.0,89,0.00,,,8.46,WUHU216DAVISWMX,2013-06-13 02:49:00,
2013-06-12 22:54:00,61.1,58.1,27.97,West,269,0.0,1.0,90,0.00,,,8.46,WUHU216DAVISWMX,2013-06-13 02:54:00,
2013-06-12 22:59:00,60.9,58.2,27.97,West,269,0.0,0.0,91,0.00,,,8.46,WUHU216DAVISWMX,2013-06-13 02:59:00,
2013-06-12 23:04:00,60.5,58.1,27.98,West,270,0.0,1.0,92,0.00,,,8.46,WUHU216DAVISWMX,2013-06-13 03:04:00,
2013-06-12 23:09:00,60.8,58.4,27.98,West,270,0.0,1.0,92,0.00,,,8.46,WUHU216DAVISWMX,2013-06-13 03:09:00,
2013-06-12 23:14:00,60.7,58.3,27.97,West,270,0.0,0.0,92,0.00,,,8.46,WUHU216DAVISWMX,2013-06-13 03:14:00,
2013-06-12 23:19:00,59.6,56.9,27.96,West,271,0.0,1.0,91,0.00,,,8.46,WUHU216DAVISWMX,2013-06-13 03:19:00,
2013-06-12 23:24:00,61.9,59.2,27.96,West,268,0.0,2.0,91,0.00,,,8.46,WUHU216DAVISWMX,2013-06-13 03:24:00,
2013-06-12 23:29:00,61.8,59.1,27.95,West,269,0.0,2.0,91,0.00,,,8.46,WUHU216DAVISWMX,2013-06-13 03:29:00,
2013-06-12 23:34:00,61.9,59.5,27.96,West,269,0.0,1.0,92,0.00,,,8.46,WUHU216DAVISWMX,2013-06-13 03:34:00,
2013-06-12 23:39:00,61.9,59.5,27.95,West,269,0.0,0.0,92,0.00,,,8.46,WUHU216DAVISWMX,2013-06-13 03:39:00,
2013-06-12 23:44:00,58.4,55.7,27.95,West,272,0.0,0.0,91,0.00,,,8.46,WUHU216DAVISWMX,2013-06-13 03:44:00,
2013-06-12 23:49:00,60.8,58.1,27.95,West,270,0.0,0.0,91,0.00,,,8.46,WUHU216DAVISWMX,2013-06-13 03:49:00,
2013-06-12 23:54:00,60.1,57.4,27.95,West,270,0.0,0.0,91,0.00,,,8.46,WUHU216DAVISWMX,2013-06-13 03:54:00,
2013-06-12 23:59:00,60.1,57.4,27.94,West,270,0.0,0.0,91,0.00,,,8.46,WUHU216DAVISWMX,2013-06-13 03:59:00,